TimeCDT,TemperatureF,Dew PointF,Humidity,Sea Level PressureIn,VisibilityMPH,Wind Direction,Wind SpeedMPH,Gust SpeedMPH,PrecipitationIn,Events,Conditions,WindDirDegrees,DateUTC
12:53 AM,48.9,39.0,69,29.64,10.0,SSE,18.4,32.2,N/A,,Overcast,160,2012-03-12 05:53:00
1:09 AM,48.2,39.2,71,29.61,10.0,SSE,19.6,26.5,N/A,,Overcast,150,2012-03-12 06:09:00
1:45 AM,46.4,39.2,76,29.60,10.0,SSE,17.3,25.3,N/A,,Mostly Cloudy,150,2012-03-12 06:45:00
1:53 AM,46.9,39.0,74,29.62,10.0,SSE,17.3,25.3,N/A,,Mostly Cloudy,150,2012-03-12 06:53:00
2:53 AM,46.0,41.0,83,29.61,10.0,SSE,12.7,-,N/A,,Scattered Clouds,150,2012-03-12 07:53:00
3:20 AM,46.4,41.0,81,29.59,10.0,SSE,11.5,-,N/A,,Overcast,150,2012-03-12 08:20:00
3:53 AM,46.0,41.0,83,29.59,10.0,SSE,12.7,-,N/A,,Overcast,160,2012-03-12 08:53:00
4:53 AM,45.0,41.0,86,29.59,5.0,SSE,9.2,-,0.01,Rain,Light Rain,160,2012-03-12 09:53:00
5:53 AM,44.6,41.0,87,29.57,5.0,SSE,11.5,-,N/A,Rain,Light Rain,160,2012-03-12 10:53:00
6:53 AM,44.1,41.0,89,29.57,5.0,SSE,10.4,-,0.03,Rain,Light Rain,160,2012-03-12 11:53:00
7:53 AM,43.0,39.9,89,29.57,4.0,SSE,10.4,-,0.01,Rain,Light Rain,160,2012-03-12 12:53:00
8:06 AM,42.8,39.2,87,29.55,2.5,SSE,10.4,-,0.00,Rain,Light Rain,160,2012-03-12 13:06:00
8:53 AM,44.1,41.0,89,29.57,2.5,SSE,10.4,-,0.01,Rain,Light Rain,160,2012-03-12 13:53:00
9:53 AM,44.1,41.0,89,29.57,3.0,South,9.2,-,0.03,Rain,Light Rain,170,2012-03-12 14:53:00
10:45 AM,44.6,42.8,93,29.55,4.0,SSW,11.5,-,0.03,Rain,Light Rain,200,2012-03-12 15:45:00
10:53 AM,45.0,42.1,90,29.57,4.0,South,11.5,-,0.03,Rain,Light Rain,190,2012-03-12 15:53:00
11:01 AM,44.6,42.8,93,29.55,4.0,South,11.5,-,0.01,Rain,Light Rain,190,2012-03-12 16:01:00
11:30 AM,44.6,41.0,87,29.55,3.0,South,9.2,-,0.03,Rain,Light Rain,180,2012-03-12 16:30:00
11:53 AM,44.1,41.0,89,29.57,2.5,South,10.4,-,0.10,Rain,Rain,170,2012-03-12 16:53:00
12:01 PM,44.6,41.0,87,29.55,3.0,South,9.2,-,0.00,Rain,Light Rain,180,2012-03-12 17:01:00
12:53 PM,45.0,41.0,86,29.58,8.0,SSW,12.7,-,0.02,,Overcast,200,2012-03-12 17:53:00
1:19 PM,44.6,41.0,87,29.56,2.0,SSW,12.7,-,N/A,,Overcast,200,2012-03-12 18:19:00
1:32 PM,44.6,41.0,87,29.56,4.0,SSW,12.7,-,N/A,,Overcast,210,2012-03-12 18:32:00
1:53 PM,45.0,42.1,90,29.56,8.0,SSW,12.7,-,N/A,,Overcast,200,2012-03-12 18:53:00
2:53 PM,46.9,43.0,86,29.58,10.0,SW,12.7,-,N/A,,Mostly Cloudy,230,2012-03-12 19:53:00
3:11 PM,48.2,42.8,82,29.57,10.0,WSW,12.7,-,N/A,,Mostly Cloudy,240,2012-03-12 20:11:00
3:53 PM,51.1,45.0,80,29.59,8.0,WNW,12.7,18.4,N/A,,Overcast,290,2012-03-12 20:53:00
4:18 PM,53.6,44.6,72,29.59,5.0,NW,17.3,25.3,N/A,,Haze,310,2012-03-12 21:18:00
4:53 PM,54.0,41.0,62,29.62,10.0,NW,13.8,-,N/A,,Clear,320,2012-03-12 21:53:00
5:53 PM,55.0,34.0,45,29.67,10.0,NW,16.1,29.9,N/A,,Clear,310,2012-03-12 22:53:00
6:53 PM,51.1,32.0,48,29.71,10.0,WNW,16.1,-,N/A,,Clear,290,2012-03-12 23:53:00
7:53 PM,46.0,32.0,58,29.75,10.0,NW,9.2,-,N/A,,Clear,310,2012-03-13 00:53:00
8:53 PM,41.0,30.0,65,29.78,10.0,West,6.9,-,N/A,,Clear,280,2012-03-13 01:53:00
9:53 PM,37.9,30.0,73,29.82,10.0,West,6.9,-,N/A,,Clear,260,2012-03-13 02:53:00
10:53 PM,37.9,28.9,70,29.85,10.0,West,9.2,-,N/A,,Clear,260,2012-03-13 03:53:00
11:53 PM,36.0,28.0,73,29.87,10.0,West,6.9,-,N/A,,Clear,260,2012-03-13 04:53:00